• In Austria
  • List of Countries
  • For 7 days
  • Water Temperature
  • Satellite Maps
  • Weather Map
  • News
  • Weather Widgets
  • user-avatar
    Login

    Hourly Weather Chyhrynivka

    Today, 18 June, Monday

    Time Temperature Precipitation Wind Pressure Humidity
    00:00 +20°C° 0 mm 4 mps 748 mmHg 76%
    01:00 +19°C° 0 mm 3 mps 748 mmHg 76%
    02:00 +18°C° 0 mm 3 mps 748 mmHg 76%
    03:00 +18°C° 0 mm 3 mps 748 mmHg 76%
    04:00 +18°C° 0 mm 3 mps 748 mmHg 76%
    05:00 +17°C° 0 mm 3 mps 748 mmHg 76%
    06:00 +19°C° 0 mm 4 mps 748 mmHg 70%
    07:00 +21°C° 0 mm 4 mps 748 mmHg 64%
    08:00 +22°C° 0 mm 4 mps 748 mmHg 58%
    09:00 +25°C° 0 mm 5 mps 748 mmHg 52%
    10:00 +26°C° 0 mm 5 mps 748 mmHg 46%
    11:00 +27°C° 0 mm 5 mps 748 mmHg 41%
    12:00 +28°C° 0 mm 5 mps 748 mmHg 40%
    13:00 +28°C° 0 mm 5 mps 748 mmHg 39%
    14:00 +28°C° 0 mm 5 mps 748 mmHg 39%
    15:00 +28°C° 0 mm 5 mps 748 mmHg 40%
    16:00 +28°C° 0 mm 5 mps 748 mmHg 42%
    17:00 +28°C° 0 mm 5 mps 748 mmHg 44%
    18:00 +26°C° 0 mm 4 mps 748 mmHg 50%
    19:00 +23°C° 0 mm 4 mps 748 mmHg 55%
    20:00 +21°C° 0 mm 3 mps 748 mmHg 60%
    21:00 +21°C° 0 mm 3 mps 749 mmHg 62%
    22:00 +20°C° 0 mm 3 mps 749 mmHg 63%
    23:00 +19°C° 0 mm 3 mps 749 mmHg 65%

    Tomorrow, 19 June, Tuesday

    Time Temperature Precipitation Wind Pressure Humidity
    00:00 +19°C° 0 mm 3 mps 749 mmHg 68%
    01:00 +18°C° 0 mm 3 mps 750 mmHg 70%
    02:00 +18°C° 0 mm 3 mps 750 mmHg 73%
    03:00 +18°C° 0 mm 3 mps 750 mmHg 74%
    04:00 +18°C° 0 mm 3 mps 750 mmHg 75%
    05:00 +18°C° 0 mm 3 mps 750 mmHg 77%
    06:00 +20°C° 0 mm 3 mps 751 mmHg 70%
    07:00 +22°C° 0 mm 3 mps 751 mmHg 63%
    08:00 +25°C° 0 mm 3 mps 751 mmHg 56%
    09:00 +26°C° 0 mm 3 mps 751 mmHg 51%
    10:00 +27°C° 0 mm 3 mps 751 mmHg 47%
    11:00 +28°C° 0 mm 3 mps 751 mmHg 42%
    12:00 +28°C° 0 mm 3 mps 751 mmHg 41%
    13:00 +29°C° 0 mm 3 mps 751 mmHg 40%
    14:00 +29°C° 0 mm 3 mps 751 mmHg 38%
    15:00 +29°C° 0 mm 3 mps 751 mmHg 40%
    16:00 +29°C° 0 mm 3 mps 751 mmHg 42%
    17:00 +29°C° 0 mm 3 mps 750 mmHg 44%
    18:00 +27°C° 0 mm 3 mps 751 mmHg 49%
    19:00 +25°C° 0 mm 2 mps 751 mmHg 54%
    20:00 +23°C° 0 mm 2 mps 751 mmHg 60%
    21:00 +23°C° 0 mm 2 mps 751 mmHg 62%
    22:00 +21°C° 0 mm 2 mps 751 mmHg 64%
    23:00 +20°C° 0 mm 2 mps 751 mmHg 66%

    Day after tomorrow, 20 June, Wednesday

    Time Temperature Precipitation Wind Pressure Humidity
    00:00 +21°C° 0 mm 1 mps 752 mmHg 67%
    01:00 +21°C° 0 mm 1 mps 752 mmHg 68%
    02:00 +20°C° 0 mm 1 mps 752 mmHg 70%
    03:00 +20°C° 0 mm 1 mps 752 mmHg 70%
    04:00 +21°C° 0 mm 1 mps 752 mmHg 71%
    05:00 +21°C° 0 mm 1 mps 752 mmHg 72%
    06:00 +23°C° 0 mm 1 mps 752 mmHg 67%
    07:00 +25°C° 0 mm 2 mps 752 mmHg 61%
    08:00 +26°C° 0 mm 2 mps 752 mmHg 56%
    09:00 +27°C° 0 mm 2 mps 752 mmHg 54%
    10:00 +28°C° 0 mm 2 mps 752 mmHg 52%
    11:00 +29°C° 0 mm 2 mps 752 mmHg 50%
    12:00 +30°C° 0.2 mm 3 mps 752 mmHg 50%
    13:00 +30°C° 0.2 mm 3 mps 752 mmHg 50%
    14:00 +31°C° 0.2 mm 3 mps 752 mmHg 49%
    15:00 +30°C° 0 mm 3 mps 752 mmHg 51%
    16:00 +30°C° 0 mm 4 mps 752 mmHg 52%
    17:00 +30°C° 0 mm 4 mps 752 mmHg 53%
    18:00 +28°C° 0 mm 4 mps 752 mmHg 59%
    19:00 +27°C° 0 mm 3 mps 752 mmHg 65%
    20:00 +25°C° 0 mm 3 mps 752 mmHg 70%
    21:00 +24°C° 0 mm 3 mps 752 mmHg 73%
    22:00 +22°C° 0 mm 3 mps 752 mmHg 75%
    23:00 +21°C° 0 mm 3 mps 753 mmHg 77%

    21 June, Thursday

    Time Temperature Precipitation Wind Pressure Humidity
    00:00 +21°C° 0 mm 3 mps 752 mmHg 79%
    01:00 +20°C° 0 mm 3 mps 752 mmHg 81%
    02:00 +20°C° 0 mm 3 mps 752 mmHg 84%
    03:00 +20°C° 0 mm 3 mps 752 mmHg 84%
    04:00 +20°C° 0 mm 3 mps 752 mmHg 85%
    05:00 +20°C° 0 mm 3 mps 752 mmHg 85%
    06:00 +22°C° 0 mm 3 mps 752 mmHg 78%
    07:00 +25°C° 0 mm 3 mps 752 mmHg 72%
    08:00 +26°C° 0 mm 3 mps 752 mmHg 65%
    09:00 +27°C° 0 mm 3 mps 752 mmHg 60%
    10:00 +28°C° 0 mm 3 mps 752 mmHg 56%
    11:00 +29°C° 0 mm 3 mps 752 mmHg 51%
    12:00 +30°C° 0 mm 3 mps 751 mmHg 50%
    13:00 +30°C° 0 mm 3 mps 751 mmHg 48%
    14:00 +30°C° 0 mm 3 mps 751 mmHg 47%
    15:00 +30°C° 0 mm 3 mps 750 mmHg 48%
    16:00 +30°C° 0 mm 3 mps 750 mmHg 50%
    17:00 +30°C° 0 mm 3 mps 750 mmHg 51%
    18:00 +28°C° 0 mm 3 mps 750 mmHg 55%
    19:00 +27°C° 0 mm 3 mps 750 mmHg 60%
    20:00 +26°C° 0 mm 2 mps 749 mmHg 64%
    21:00 +25°C° 0 mm 2 mps 749 mmHg 66%
    22:00 +24°C° 0 mm 2 mps 749 mmHg 68%
    23:00 +24°C° 0 mm 2 mps 749 mmHg 69%

    22 June, Friday

    Time Temperature Precipitation Wind Pressure Humidity
    00:00 +23°C° 0 mm 2 mps 749 mmHg 71%
    01:00 +23°C° 0 mm 2 mps 749 mmHg 73%
    02:00 +23°C° 0 mm 2 mps 749 mmHg 74%
    03:00 +23°C° 0 mm 2 mps 748 mmHg 75%
    04:00 +23°C° 0 mm 2 mps 748 mmHg 77%
    05:00 +23°C° 0 mm 2 mps 748 mmHg 78%
    06:00 +25°C° 0 mm 3 mps 748 mmHg 72%
    07:00 +26°C° 0 mm 3 mps 748 mmHg 67%
    08:00 +28°C° 0 mm 3 mps 747 mmHg 61%
    09:00 +29°C° 0.3 mm 3 mps 747 mmHg 56%
    10:00 +30°C° 0.3 mm 3 mps 747 mmHg 51%
    11:00 +33°C° 0.3 mm 3 mps 747 mmHg 46%
    12:00 +33°C° 0 mm 3 mps 746 mmHg 46%
    13:00 +33°C° 0 mm 3 mps 746 mmHg 45%
    14:00 +32°C° 0 mm 2 mps 745 mmHg 44%
    15:00 +33°C° 0 mm 3 mps 745 mmHg 45%
    16:00 +33°C° 0 mm 3 mps 745 mmHg 45%
    17:00 +33°C° 0 mm 3 mps 744 mmHg 45%
    18:00 +31°C° 0 mm 2 mps 744 mmHg 49%
    19:00 +29°C° 0 mm 2 mps 744 mmHg 52%
    20:00 +28°C° 0 mm 2 mps 744 mmHg 55%
    21:00 +27°C° 0.1 mm 2 mps 744 mmHg 57%
    22:00 +27°C° 0.1 mm 2 mps 744 mmHg 58%
    23:00 +26°C° 0.1 mm 2 mps 743 mmHg 60%

    23 June, Saturday

    Time Temperature Precipitation Wind Pressure Humidity
    00:00 +25°C° 0.1 mm 2 mps 743 mmHg 62%
    01:00 +24°C° 0.1 mm 2 mps 743 mmHg 65%
    02:00 +23°C° 0.1 mm 2 mps 743 mmHg 67%
    03:00 +23°C° 0.2 mm 2 mps 743 mmHg 70%
    04:00 +23°C° 0.2 mm 2 mps 743 mmHg 73%
    05:00 +23°C° 0.2 mm 2 mps 743 mmHg 76%
    06:00 +25°C° 0.3 mm 2 mps 743 mmHg 70%
    07:00 +26°C° 0.3 mm 2 mps 743 mmHg 64%
    08:00 +28°C° 0.3 mm 3 mps 743 mmHg 58%
    09:00 +29°C° 0 mm 3 mps 743 mmHg 54%
    10:00 +31°C° 0 mm 3 mps 743 mmHg 49%
    11:00 +33°C° 0 mm 3 mps 743 mmHg 45%
    12:00 +32°C° 0.1 mm 4 mps 743 mmHg 48%
    13:00 +32°C° 0.1 mm 4 mps 743 mmHg 50%
    14:00 +30°C° 0.1 mm 5 mps 743 mmHg 53%
    15:00 +29°C° 0.1 mm 6 mps 743 mmHg 59%
    16:00 +28°C° 0.1 mm 6 mps 744 mmHg 64%
    17:00 +26°C° 0.1 mm 7 mps 744 mmHg 69%
    18:00 +23°C° 0.3 mm 7 mps 744 mmHg 73%
    19:00 +21°C° 0.3 mm 7 mps 745 mmHg 76%
    20:00 +18°C° 0.3 mm 7 mps 745 mmHg 79%
    21:00 +17°C° 0.1 mm 6 mps 746 mmHg 79%
    22:00 +17°C° 0.1 mm 6 mps 746 mmHg 79%
    23:00 +16°C° 0.1 mm 6 mps 747 mmHg 79%
    Show more